Home   Weather   Haldimand   Past weeks

Flag for Canada Past Weather in Haldimand, Ontario, Canada — Yesterday and Last 2 Weeks

Now
37 °F

Overcast.


Feels Like: 31 °F
Forecast: 31 / 41 °F
Wind: 8 mph from Southwest

Location: Hamilton Airport

Current Time: Dec 5, 2016 at 8:03:26 pm

Latest Report: Dec 5, 2016 at 7:00 pm


Visibility: 15 mi

Pressure: 30.09 "Hg

Humidity: 75%

Dew Point: 30 °F

Location of HaldimandLocation

Past Weather in Haldimand — Graph

°F

Haldimand Temperature Yesterday

Maximum temperature yesterday: 36 °F (at 12:00 am)
Minimum temperature yesterday: 34 °F (at 3:00 am)
Average temperature yesterday: 35 °F

High & Low Weather Summary for the Past Weeks

 TemperatureHumidityPressure
High55 °F (Nov 29, 1:00 pm)100% (Nov 23, 9:00 pm)30.39 "Hg (Nov 23, 9:00 pm)
Low19 °F (Nov 23, 7:00 am)51% (Nov 21, 12:00 pm)29.47 "Hg (Nov 30, 9:00 pm)
Average38 °F84%30.02 "Hg
* Reported Nov 20 7:00 pm — Dec 5 7:00 pm, Haldimand, Weather by CustomWeather, © 2016

Note: Actual official high and low records may vary slightly from our data, if they occured in-between our weather recording intervals... More about our weather records

Advertising

Haldimand Weather History for the Previous 24 Hours

Scroll right to see more
 ConditionsComfort  
Time TempWeatherWind HumidityBarometerVisibility
7:00 pm
Mon, Dec 5
37 °FOvercast.8 mph75%30.09 "Hg15 mi
6:00 pm39 °FPassing clouds.8 mph70%30.08 "Hg15 mi
5:00 pm39 °FPassing clouds.9 mph70%30.06 "Hg15 mi
4:00 pm39 °FPartly sunny.13 mph70%30.03 "Hg15 mi
3:00 pm39 °FPartly sunny.17 mph70%30.01 "Hg15 mi
2:00 pm41 °FMostly cloudy.17 mph70%29.99 "Hg15 mi
1:00 pm41 °FBroken clouds.17 mph70%29.97 "Hg15 mi
12:00 pm39 °FScattered clouds.17 mph75%29.96 "Hg15 mi
11:00 am37 °FPartly sunny.17 mph87%29.97 "Hg15 mi
10:00 am36 °FMore clouds than sun.20 mph87%29.97 "Hg15 mi
9:00 am36 °FMostly cloudy.14 mph87%29.93 "Hg15 mi
8:00 am34 °FPartly sunny.17 mph93%29.90 "Hg15 mi
7:00 am34 °FMostly cloudy.16 mph93%29.88 "Hg15 mi
6:00 am32 °FLight snow. Mostly cloudy.13 mph100%29.85 "Hg8 mi
5:00 am32 °FLight snow. Low clouds.5 mph100%29.81 "Hg6 mi
4:00 am32 °FLight snow. Low clouds.2 mph100%29.80 "Hg2 mi
3:00 am32 °FLight snow. Low clouds.3 mph100%29.81 "Hg2 mi
2:00 am32 °FLight snow. Overcast.7 mph93%29.82 "Hg2 mi
1:00 am32 °FLight snow. Mostly cloudy.10 mph93%29.83 "Hg4 mi
12:00 am34 °FLight snow. Mostly cloudy.12 mph93%29.88 "Hg2 mi
11:55 pm
Sun, Dec 4
34 °FLight snow. Mostly cloudy.10 mph93%29.88 "Hg2 mi
11:00 pm34 °FLight snow. Mostly cloudy.12 mph93%29.88 "Hg15 mi
10:00 pm34 °FLight snow. Mostly cloudy.10 mph87%29.92 "Hg4 mi
9:00 pm36 °FLight snow. Mostly cloudy.12 mph75%29.96 "Hg4 mi
8:00 pm36 °FMostly cloudy.9 mph75%30.02 "Hg15 mi
Weather by CustomWeather, © 2016

See weather overviewHow to use our weather pages